Weather History for Morris, IL

Change the Weather History Date:

Thursday, October 10, 2013

  Actual Average (KLOT) Record (KLOT)
Temperature  
Mean Temperature 60 °F 55 °F  
Max Temperature 78 °F 65 °F 85 °F (2010)
Min Temperature 44 °F 45 °F 28 °F (2000)
Degree Days  
Heating Degree Days 4 11  
Month to date heating degree days 92  
Since 1 July heating degree days 191  
Cooling Degree Days 0 1  
Month to date cooling degree days 10  
Year to date cooling degree days 857  
Growing Degree Days 10 (Base 50)    
Moisture  
Dew Point 47 °F    
Average Humidity 65    
Maximum Humidity 95    
Minimum Humidity 30    
Precipitation  
Precipitation 0.00 in 0.12 in 0.16 in (2001)
Month to date precipitation 1.08  
Year to date precipitation 32.03  
Snow  
Snow 0.00 in 0.00 in - ()
Month to date snowfall 0.0  
Since 1 July snowfall 0.0  
Since 1 September snowfall 0.0  
Snow Depth -    
Sea Level Pressure  
Sea Level Pressure 30.11 in    
Wind  
Wind Speed 2 mph (ESE)    
Max Wind Speed 7 mph    
Max Gust Speed -    
Visibility 8 miles    
Events      
T = Trace of Precipitation, MM = Missing Value Source: NWS Daily Summary

Daily Weather History Graph

Daily Weather History Graph

Search for Another Location

Airport:

Trip Planner

Search our weather history database for the weather conditions in past years. The results will help you decide how hot, cold, wet, or windy it might be!

Date:

Astronomy

Oct. 10, 2013 Rise Set
Actual Time 7:00 AM CDT 6:20 PM CDT
Civil Twilight 6:32 AM CDT 6:47 PM CDT
Nautical Twilight 6:00 AM CDT 7:19 PM CDT
Astronomical Twilight 5:28 AM CDT 7:51 PM CDT
Moon 12:54 PM CDT (10/10) 10:55 PM CDT (10/10)
Length of Visible Light 12h 15m
Length of Day
11h 19m
Waxing Crescent, 36% of the Moon is Illuminated
Oct 10
Waxing Crescent
Oct 11
First Quarter
Oct 18
Full
Oct 26
Last Quarter
Nov 3
New

Hourly Weather History & Observations

Time (CDT) Temp. Windchill Dew Point Humidity Pressure Visibility Wind Dir Wind Speed Gust Speed Precip Events Conditions
12:15 AM 50.0 °F - 46.6 °F 88% 30.14 in 7.0 mi North 4.6 mph - N/A   Clear
12:35 AM 50.9 °F - 47.3 °F 87% 30.14 in 10.0 mi NNE 3.5 mph - N/A   Clear
12:55 AM 50.2 °F - 46.6 °F 87% 30.14 in 7.0 mi Calm Calm - N/A   Clear
1:15 AM 49.1 °F - 46.2 °F 90% 30.15 in 7.0 mi Calm Calm - N/A   Clear
1:35 AM 50.2 °F - 47.5 °F 90% 30.15 in 7.0 mi Calm Calm - N/A   Clear
1:55 AM 50.5 °F - 47.3 °F 89% 30.14 in 7.0 mi Calm Calm - N/A   Clear
2:15 AM 50.2 °F - 47.5 °F 90% 30.14 in 5.0 mi Calm Calm - N/A   Clear
2:35 AM 49.6 °F - 47.3 °F 92% 30.14 in 5.0 mi ENE 4.6 mph - N/A   Clear
2:55 AM 48.0 °F - 45.5 °F 91% 30.14 in 5.0 mi Calm Calm - N/A   Clear
3:15 AM 47.5 °F - 45.3 °F 92% 30.14 in 4.0 mi Calm Calm - N/A   Clear
3:35 AM 47.3 °F - 45.5 °F 93% 30.14 in 5.0 mi Calm Calm - N/A   Clear
3:55 AM 47.5 °F - 45.9 °F 94% 30.14 in 5.0 mi Calm Calm - N/A   Clear
4:15 AM 46.8 °F - 45.0 °F 93% 30.14 in 4.0 mi Calm Calm - N/A   Clear
4:35 AM 47.3 °F - 45.7 °F 94% 30.14 in 5.0 mi Calm Calm - N/A   Clear
4:55 AM 47.3 °F - 45.5 °F 93% 30.14 in 4.0 mi ENE 3.5 mph - N/A   Clear
5:15 AM 46.4 °F 45.2 °F 44.6 °F 93% 30.15 in 4.0 mi ENE 3.5 mph - N/A   Clear
5:35 AM 45.3 °F - 43.7 °F 94% 30.15 in 4.0 mi Calm Calm - N/A   Clear
5:55 AM 45.0 °F - 43.5 °F 95% 30.15 in 5.0 mi Calm Calm - N/A   Clear
6:15 AM 44.8 °F - 43.5 °F 95% 30.15 in 5.0 mi Calm Calm - N/A   Clear
6:35 AM 44.8 °F - 43.3 °F 95% 30.16 in 5.0 mi Calm Calm - N/A   Clear
6:55 AM 45.7 °F - 44.2 °F 95% 30.16 in 5.0 mi Calm Calm - N/A   Clear
7:15 AM 44.6 °F - 43.2 °F 95% 30.16 in 3.0 mi Calm Calm - N/A   Clear
7:35 AM 45.0 °F - 43.7 °F 95% 30.16 in 3.0 mi Calm Calm - N/A   Clear
7:55 AM 46.4 °F - 45.0 °F 95% 30.16 in 4.0 mi Calm Calm - N/A   Clear
8:15 AM 49.5 °F - 47.7 °F 94% 30.16 in 5.0 mi Calm Calm - N/A   Clear
8:35 AM 52.7 °F - 48.6 °F 86% 30.16 in 7.0 mi Calm Calm - N/A   Clear
8:55 AM 55.4 °F - 49.1 °F 79% 30.16 in 10.0 mi Calm Calm - N/A   Clear
9:15 AM 57.6 °F - 49.3 °F 74% 30.17 in 10.0 mi Calm Calm - N/A   Clear
9:35 AM 60.1 °F - 49.3 °F 67% 30.17 in 10.0 mi Calm Calm - N/A   Clear
9:55 AM 62.4 °F - 48.7 °F 61% 30.17 in 10.0 mi Calm Calm - N/A   Clear
10:15 AM 64.6 °F - 48.9 °F 57% 30.17 in 10.0 mi Calm Calm - N/A   Clear
10:35 AM 66.6 °F - 48.7 °F 53% 30.17 in 10.0 mi Calm Calm - N/A   Clear
10:55 AM 69.1 °F - 48.6 °F 48% 30.17 in 10.0 mi SE 3.5 mph - N/A   Clear
11:15 AM 70.2 °F - 48.4 °F 46% 30.17 in 10.0 mi SSE 4.6 mph - N/A   Clear
11:35 AM 71.8 °F - 48.2 °F 43% 30.16 in 10.0 mi SW 4.6 mph - N/A   Clear
11:55 AM 73.2 °F - 48.4 °F 41% 30.16 in 10.0 mi South 5.8 mph - N/A   Clear
12:15 PM 73.9 °F - 47.7 °F 39% 30.15 in 10.0 mi SSW 3.5 mph - N/A   Unknown
12:35 PM 73.4 °F - 47.5 °F 40% 30.14 in 10.0 mi SSW 6.9 mph - N/A   Clear
12:55 PM 73.6 °F - 47.1 °F 39% 30.13 in 10.0 mi South 4.6 mph - N/A   Clear
1:15 PM 74.3 °F - 47.1 °F 38% 30.12 in 10.0 mi Calm Calm - N/A   Scattered Clouds
1:35 PM 73.9 °F - 46.6 °F 38% 30.11 in 10.0 mi Calm Calm - N/A   Scattered Clouds
1:55 PM 76.3 °F - 46.0 °F 34% 30.10 in 10.0 mi SE 4.6 mph - N/A   Clear
2:15 PM 76.5 °F - 45.5 °F 33% 30.09 in 10.0 mi SE 4.6 mph - N/A   Clear
2:35 PM 77.0 °F - 45.5 °F 33% 30.09 in 10.0 mi SE 4.6 mph - N/A   Scattered Clouds
2:55 PM 77.0 °F - 44.8 °F 32% 30.08 in 10.0 mi ENE 3.5 mph - N/A   Clear
3:15 PM 75.9 °F - 44.2 °F 32% 30.08 in 10.0 mi ESE 3.5 mph - N/A   Clear
3:35 PM 77.0 °F - 45.0 °F 32% 30.07 in 10.0 mi SE 4.6 mph - N/A   Clear
3:55 PM 77.0 °F - 43.5 °F 30% 30.07 in 10.0 mi SSE 4.6 mph - N/A   Clear
4:15 PM 76.6 °F - 44.6 °F 32% 30.06 in 10.0 mi SE 4.6 mph - N/A   Clear
4:35 PM 77.5 °F - 44.8 °F 31% 30.06 in 10.0 mi ENE 4.6 mph - N/A   Clear
4:55 PM 77.4 °F - 43.9 °F 30% 30.06 in 10.0 mi SE 4.6 mph - N/A   Clear
5:15 PM 76.6 °F - 44.6 °F 32% 30.05 in 10.0 mi East 5.8 mph - N/A   Clear
5:35 PM 75.7 °F - 44.8 °F 33% 30.05 in 10.0 mi ESE 4.6 mph - N/A   Clear
5:55 PM 73.0 °F - 46.9 °F 39% 30.05 in 10.0 mi Calm Calm - N/A   Clear
6:15 PM 72.1 °F - 46.6 °F 40% 30.05 in 10.0 mi Calm Calm - N/A   Clear
6:35 PM 69.4 °F - 47.8 °F 46% 30.05 in 10.0 mi Calm Calm - N/A   Clear
6:55 PM 69.8 °F - 47.5 °F 45% 30.05 in 10.0 mi Calm Calm - N/A   Clear
7:15 PM 68.5 °F - 48.0 °F 48% 30.05 in 10.0 mi Calm Calm - N/A   Clear
7:35 PM 65.8 °F - 48.2 °F 53% 30.05 in 10.0 mi ENE 3.5 mph - N/A   Clear
7:55 PM 65.5 °F - 48.2 °F 54% 30.05 in 10.0 mi ESE 4.6 mph - N/A   Clear
8:15 PM 66.4 °F - 48.2 °F 52% 30.05 in 10.0 mi East 5.8 mph - N/A   Clear
8:35 PM 63.5 °F - 48.0 °F 57% 30.05 in 10.0 mi East 5.8 mph - N/A   Clear
8:55 PM 64.0 °F - 48.4 °F 57% 30.05 in 10.0 mi East 4.6 mph - N/A   Clear
9:15 PM 61.0 °F - 48.2 °F 63% 30.05 in 10.0 mi East 5.8 mph - N/A   Clear
9:35 PM 62.6 °F - 47.8 °F 58% 30.05 in 10.0 mi ENE 5.8 mph - N/A   Clear
9:55 PM 60.1 °F - 47.7 °F 64% 30.05 in 10.0 mi ENE 5.8 mph - N/A   Clear
10:15 PM 58.5 °F - 47.8 °F 68% 30.05 in 10.0 mi ENE 5.8 mph - N/A   Clear
10:35 PM 56.3 °F - 47.7 °F 73% 30.05 in 10.0 mi East 4.6 mph - N/A   Clear
10:55 PM 55.6 °F - 46.9 °F 73% - 10.0 mi East 3.5 mph - N/A   Clear
11:15 PM 55.0 °F - 47.3 °F 75% 30.05 in 10.0 mi ENE 3.5 mph - N/A   Clear
11:35 PM 55.0 °F - 47.3 °F 75% 30.05 in 10.0 mi East 4.6 mph - N/A   Clear
11:55 PM 54.9 °F - 47.5 °F 76% 30.04 in 10.0 mi East 3.5 mph - N/A   Clear